| time (UTC) | temp C | wind direction | speed KPH | gust KPH | rain 1hr cm | rain 24hr cm | rain mn cm | humidity % | barometer mb |
| 20260831005904 | 20 | 214 | 0.0 | 0.0 | 0.00 | 0.05 | 0.00 | 8 | 1018.7 |
| 20260831005404 | 20 | 213 | 3.2 | 9.7 | 0.00 | 0.05 | 0.00 | 10 | 1018.7 |
| 20260831004904 | 20 | 229 | 4.8 | 14.5 | 0.00 | 0.05 | 0.00 | 10 | 1018.6 |
| 20260831004404 | 20 | 224 | 4.8 | 19.3 | 0.00 | 0.05 | 0.00 | 9 | 1018.6 |
| 20260831003404 | 21 | 209 | 0.0 | 4.8 | 0.00 | 0.05 | 0.00 | 8 | 1018.5 |
| 20260831002904 | 21 | 223 | 0.0 | 19.3 | 0.00 | 0.05 | 0.00 | 8 | 1018.6 |
| 20260831002404 | 21 | 201 | 3.2 | 29.0 | 0.00 | 0.05 | 0.00 | 9 | 1018.5 |
| 20260831001404 | 21 | 221 | 0.0 | 3.2 | 0.00 | 0.05 | 0.00 | 8 | 1018.7 |
| 20260831000904 | 21 | 224 | 0.0 | 16.1 | 0.00 | 0.05 | 0.00 | 8 | 1018.8 |
| 20260831000404 | 22 | 208 | 1.6 | 16.1 | 0.00 | 0.05 | 0.00 | 8 | 1018.6 |
| 20260830235904 | 22 | 223 | 1.6 | 16.1 | 0.00 | 0.05 | 0.00 | 9 | 1018.7 |
| 20260830235404 | 22 | 226 | 0.0 | 12.9 | 0.00 | 0.05 | 0.00 | 10 | 1018.6 |
| 20260830234904 | 22 | 204 | 3.2 | 14.5 | 0.00 | 0.05 | 0.00 | 8 | 1018.6 |
| 20260830234404 | 22 | 239 | 1.6 | 12.9 | 0.00 | 0.05 | 0.00 | 9 | 1018.6 |
| 20260830233904 | 22 | 217 | 3.2 | 16.1 | 0.00 | 0.05 | 0.00 | 7 | 1018.6 |
| 20260830233404 | 22 | 222 | 1.6 | 8.0 | 0.00 | 0.05 | 0.00 | 8 | 1018.6 |
| 20260830232904 | 22 | 225 | 1.6 | 14.5 | 0.00 | 0.05 | 0.00 | 10 | 1018.5 |
| 20260830232404 | 22 | 212 | 0.0 | 3.2 | 0.00 | 0.05 | 0.00 | 9 | 1018.6 |
| 20260830231404 | 22 | 248 | 9.7 | 20.9 | 0.00 | 0.05 | 0.00 | 5 | 1018.6 |
| 20260830230904 | 22 | 223 | 1.6 | 12.9 | 0.00 | 0.05 | 0.00 | 8 | 1018.6 |
| 20260830230403 | 22 | 250 | 3.2 | 19.3 | 0.00 | 0.05 | 0.00 | 6 | 1018.7 |
| 20260830225904 | 22 | 80 | 1.6 | 3.2 | 0.00 | 0.05 | 0.00 | 4 | 1018.7 |
| 20260830225404 | 22 | 198 | 1.6 | 19.3 | 0.00 | 0.05 | 0.00 | 8 | 1018.8 |
| 20260830224904 | 22 | 219 | 8.0 | 19.3 | 0.00 | 0.05 | 0.00 | 7 | 1018.7 |
| 20260830224404 | 22 | 238 | 0.0 | 19.3 | 0.00 | 0.05 | 0.00 | 8 | 1018.7 |
| 20260830223904 | 22 | 208 | 3.2 | 16.1 | 0.00 | 0.05 | 0.00 | 7 | 1018.7 |
| 20260830223404 | 21 | 210 | 8.0 | 22.5 | 0.00 | 0.05 | 0.00 | 7 | 1018.7 |
| 20260830222904 | 21 | 201 | 6.4 | 20.9 | 0.00 | 0.05 | 0.00 | 8 | 1018.7 |
| 20260830222404 | 21 | 205 | 3.2 | 19.3 | 0.00 | 0.05 | 0.00 | 9 | 1018.7 |
| 20260830221904 | 21 | 203 | 8.0 | 22.5 | 0.00 | 0.05 | 0.00 | 10 | 1018.8 |
| 20260830221404 | 21 | 202 | 8.0 | 20.9 | 0.00 | 0.05 | 0.00 | 10 | 1018.8 |
| 20260830220404 | 21 | 221 | 11.3 | 24.1 | 0.00 | 0.05 | 0.00 | 8 | 1019.0 |
| 20260830215904 | 21 | 206 | 9.7 | 25.7 | 0.00 | 0.05 | 0.00 | 9 | 1019.0 |
| 20260830215404 | 21 | 210 | 3.2 | 16.1 | 0.00 | 0.05 | 0.00 | 12 | 1019.0 |
| 20260830214404 | 21 | 216 | 1.6 | 19.3 | 0.00 | 0.05 | 0.00 | 12 | 1019.0 |
| 20260830213904 | 21 | 209 | 6.4 | 19.3 | 0.00 | 0.05 | 0.00 | 9 | 1019.0 |
| 20260830213404 | 21 | 210 | 4.8 | 19.3 | 0.00 | 0.05 | 0.00 | 13 | 1019.1 |
| 20260830212904 | 21 | 249 | 17.7 | 33.8 | 0.00 | 0.05 | 0.00 | 10 | 1019.2 |
| 20260830212404 | 21 | 217 | 3.2 | 16.1 | 0.00 | 0.05 | 0.00 | 12 | 1019.2 |
| 20260830211904 | 21 | 201 | 4.8 | 19.3 | 0.00 | 0.05 | 0.00 | 12 | 1019.2 |
| 20260830211404 | 21 | 189 | 11.3 | 22.5 | 0.00 | 0.05 | 0.00 | 13 | 1019.3 |
| 20260830210904 | 21 | 222 | 6.4 | 22.5 | 0.00 | 0.05 | 0.00 | 13 | 1019.2 |
| 20260830210404 | 21 | 205 | 8.0 | 29.0 | 0.00 | 0.05 | 0.00 | 14 | 1019.2 |
| 20260830205904 | 21 | 208 | 9.7 | 24.1 | 0.00 | 0.05 | 0.00 | 14 | 1019.1 |
| 20260830205404 | 21 | 219 | 16.1 | 25.7 | 0.00 | 0.05 | 0.00 | 14 | 1019.2 |
| 20260830204904 | 21 | 214 | 14.5 | 25.7 | 0.00 | 0.05 | 0.00 | 13 | 1019.2 |
| 20260830203904 | 21 | 214 | 12.9 | 20.9 | 0.00 | 0.05 | 0.00 | 15 | 1019.1 |
| 20260830203404 | 21 | 209 | 9.7 | 19.3 | 0.00 | 0.05 | 0.00 | 17 | 1019.2 |
| 20260830202904 | 21 | 213 | 9.7 | 19.3 | 0.00 | 0.05 | 0.00 | 16 | 1019.1 |
| 20260830202404 | 21 | 217 | 11.3 | 24.1 | 0.00 | 0.05 | 0.00 | 16 | 1019.2 |
| 20260830201904 | 21 | 201 | 8.0 | 19.3 | 0.00 | 0.08 | 0.00 | 17 | 1019.1 |
| 20260830194904 | 21 | 232 | 1.6 | 11.3 | 0.00 | 0.08 | 0.00 | 20 | 1019.2 |
| 20260830194404 | 21 | 270 | 3.2 | 12.9 | 0.00 | 0.10 | 0.00 | 19 | 1019.3 |
| 20260830193904 | 21 | 230 | 1.6 | 9.7 | 0.00 | 0.10 | 0.00 | 21 | 1019.3 |
| 20260830193404 | 21 | 152 | 0.0 | 8.0 | 0.00 | 0.10 | 0.00 | 22 | 1019.2 |
| 20260830192904 | 21 | 227 | 3.2 | 12.9 | 0.00 | 0.10 | 0.00 | 21 | 1019.3 |
| 20260830192404 | 21 | 187 | 3.2 | 20.9 | 0.00 | 0.13 | 0.00 | 22 | 1019.2 |
| 20260830191904 | 21 | 186 | 6.4 | 19.3 | 0.00 | 0.13 | 0.00 | 20 | 1019.1 |
| 20260830190904 | 20 | 232 | 4.8 | 16.1 | 0.00 | 0.13 | 0.00 | 27 | 1019.2 |
| 20260830190404 | 20 | 196 | 3.2 | 14.5 | 0.00 | 0.15 | 0.00 | 25 | 1019.2 |
| 20260830185904 | 20 | 196 | 1.6 | 16.1 | 0.00 | 0.15 | 0.00 | 26 | 1019.1 |
| 20260830185404 | 20 | 217 | 1.6 | 14.5 | 0.00 | 0.15 | 0.00 | 29 | 1019.2 |
| 20260830184904 | 20 | 226 | 3.2 | 14.5 | 0.00 | 0.15 | 0.00 | 28 | 1019.2 |
| 20260830184404 | 19 | 215 | 3.2 | 12.9 | 0.00 | 0.15 | 0.00 | 34 | 1019.3 |
| 20260830183904 | 19 | 221 | 3.2 | 12.9 | 0.00 | 0.15 | 0.00 | 33 | 1019.3 |
| 20260830183404 | 19 | 226 | 3.2 | 19.3 | 0.00 | 0.15 | 0.00 | 32 | 1019.3 |
| 20260830182904 | 19 | 223 | 9.7 | 14.5 | 0.00 | 0.15 | 0.00 | 34 | 1019.3 |
| 20260830182404 | 19 | 217 | 0.0 | 4.8 | 0.00 | 0.15 | 0.00 | 34 | 1019.3 |
| 20260830181904 | 19 | 211 | 0.0 | 8.0 | 0.00 | 0.15 | 0.00 | 36 | 1019.3 |
| 20260830180904 | 19 | 224 | 3.2 | 12.9 | 0.00 | 0.15 | 0.00 | 36 | 1019.2 |
| 20260830180404 | 18 | 273 | 0.0 | 8.0 | 0.00 | 0.15 | 0.00 | 38 | 1019.2 |
| 20260830175904 | 18 | 228 | 6.4 | 19.3 | 0.00 | 0.15 | 0.00 | 36 | 1019.3 |
| 20260830175404 | 18 | 227 | 4.8 | 16.1 | 0.00 | 0.15 | 0.00 | 37 | 1019.3 |
| 20260830174904 | 18 | 201 | 0.0 | 0.0 | 0.00 | 0.15 | 0.00 | 42 | 1019.2 |
| 20260830174404 | 18 | 201 | 0.0 | 0.0 | 0.00 | 0.15 | 0.00 | 47 | 1019.2 |
| 20260830173904 | 18 | 201 | 0.0 | 0.0 | 0.00 | 0.15 | 0.00 | 47 | 1019.3 |
| 20260830173404 | 17 | 201 | 0.0 | 0.0 | 0.00 | 0.15 | 0.00 | 46 | 1019.3 |
| 20260830172904 | 17 | 201 | 0.0 | 0.0 | 0.00 | 0.15 | 0.00 | 48 | 1019.3 |
| 20260830172404 | 17 | 201 | 0.0 | 0.0 | 0.00 | 0.15 | 0.00 | 51 | 1019.4 |
| 20260830171404 | 17 | 201 | 0.0 | 0.0 | 0.00 | 0.15 | 0.00 | 53 | 1019.4 |
| 20260830170904 | 16 | 201 | 0.0 | 0.0 | 0.00 | 0.15 | 0.00 | 52 | 1019.4 |
| 20260830165404 | 16 | 201 | 0.0 | 0.0 | 0.00 | 0.15 | 0.00 | 61 | 1019.4 |
| 20260830164904 | 15 | 201 | 0.0 | 0.0 | 0.00 | 0.15 | 0.00 | 65 | 1019.5 |
| 20260830164404 | 15 | 201 | 0.0 | 0.0 | 0.00 | 0.15 | 0.00 | 68 | 1019.4 |
| 20260830163904 | 15 | 201 | 0.0 | 0.0 | 0.00 | 0.15 | 0.00 | 71 | 1019.4 |
| 20260830163404 | 14 | 201 | 0.0 | 0.0 | 0.00 | 0.15 | 0.00 | 75 | 1019.4 |
| 20260830162904 | 13 | 201 | 0.0 | 0.0 | 0.00 | 0.15 | 0.00 | 77 | 1019.3 |
| 20260830162404 | 13 | 201 | 0.0 | 0.0 | 0.00 | 0.15 | 0.00 | 78 | 1019.3 |
| 20260830161404 | 12 | 201 | 0.0 | 0.0 | 0.00 | 0.15 | 0.00 | 79 | 1019.3 |
| 20260830160404 | 12 | 201 | 0.0 | 0.0 | 0.00 | 0.15 | 0.00 | 80 | 1019.3 |
| 20260830155904 | 11 | 201 | 0.0 | 0.0 | 0.00 | 0.15 | 0.00 | 80 | 1019.3 |
| 20260830155404 | 11 | 201 | 0.0 | 0.0 | 0.00 | 0.15 | 0.00 | 80 | 1019.3 |
| 20260830154904 | 11 | 201 | 0.0 | 0.0 | 0.00 | 0.15 | 0.00 | 80 | 1019.3 |
| 20260830154404 | 11 | 201 | 0.0 | 0.0 | 0.00 | 0.15 | 0.00 | 80 | 1019.4 |
| 20260830152904 | 10 | 201 | 0.0 | 0.0 | 0.00 | 0.15 | 0.00 | 80 | 1019.4 |
| 20260830152404 | 10 | 201 | 0.0 | 0.0 | 0.00 | 0.15 | 0.00 | 80 | 1019.2 |
| 20260830151904 | 10 | 201 | 0.0 | 0.0 | 0.00 | 0.15 | 0.00 | 80 | 1019.3 |
| 20260830151404 | 10 | 201 | 0.0 | 0.0 | 0.00 | 0.15 | 0.00 | 80 | 1019.2 |
| 20260830150904 | 10 | 201 | 0.0 | 0.0 | 0.00 | 0.15 | 0.00 | 80 | 1019.1 |
| 20260830145904 | 10 | 201 | 0.0 | 0.0 | 0.00 | 0.15 | 0.00 | 80 | 1019.0 |
| 20260830145405 | 10 | 201 | 0.0 | 0.0 | 0.00 | 0.15 | 0.00 | 80 | 1019.0 |
| 20260830144904 | 10 | 201 | 0.0 | 0.0 | 0.00 | 0.15 | 0.00 | 80 | 1019.0 |
| 20260830144404 | 10 | 201 | 0.0 | 0.0 | 0.00 | 0.15 | 0.00 | 80 | 1019.1 |
| 20260830143904 | 9 | 201 | 0.0 | 0.0 | 0.00 | 0.15 | 0.00 | 80 | 1019.1 |
| 20260830143404 | 9 | 201 | 0.0 | 0.0 | 0.00 | 0.15 | 0.00 | 80 | 1019.2 |
| 20260830142904 | 9 | 201 | 0.0 | 0.0 | 0.00 | 0.15 | 0.00 | 80 | 1019.3 |
| 20260830142403 | 9 | 201 | 0.0 | 0.0 | 0.00 | 0.15 | 0.00 | 80 | 1019.2 |
| 20260830141904 | 9 | 201 | 0.0 | 0.0 | 0.00 | 0.15 | 0.00 | 79 | 1019.0 |
| 20260830141404 | 9 | 201 | 0.0 | 0.0 | 0.00 | 0.15 | 0.00 | 79 | 1018.8 |
| 20260830140904 | 9 | 201 | 4.8 | 9.7 | 0.00 | 0.15 | 0.00 | 79 | 1018.7 |
| 20260830140404 | 9 | 201 | 0.0 | 0.0 | 0.00 | 0.15 | 0.00 | 79 | 1018.6 |
| 20260830135904 | 9 | 201 | 0.0 | 0.0 | 0.00 | 0.15 | 0.00 | 79 | 1018.8 |
| 20260830135404 | 9 | 201 | 0.0 | 0.0 | 0.00 | 0.15 | 0.00 | 79 | 1018.9 |
| 20260830134404 | 9 | 201 | 0.0 | 0.0 | 0.00 | 0.15 | 0.00 | 79 | 1019.0 |
| 20260830133903 | 9 | 201 | 0.0 | 0.0 | 0.00 | 0.15 | 0.00 | 79 | 1018.9 |
| 20260830132404 | 8 | 201 | 0.0 | 0.0 | 0.00 | 0.15 | 0.00 | 79 | 1018.8 |
| 20260830131404 | 8 | 201 | 0.0 | 0.0 | 0.00 | 0.15 | 0.00 | 78 | 1018.8 |
| 20260830130904 | 8 | 201 | 0.0 | 0.0 | 0.00 | 0.15 | 0.00 | 78 | 1018.8 |
| 20260830130404 | 8 | 201 | 0.0 | 0.0 | 0.00 | 0.15 | 0.00 | 78 | 1018.8 |
| 20260830125404 | 8 | 201 | 0.0 | 0.0 | 0.00 | 0.15 | 0.00 | 78 | 1018.8 |
| 20260830124904 | 8 | 201 | 0.0 | 0.0 | 0.00 | 0.15 | 0.00 | 78 | 1018.8 |
| 20260830124404 | 8 | 201 | 0.0 | 0.0 | 0.00 | 0.15 | 0.00 | 78 | 1018.7 |
| 20260830123904 | 8 | 201 | 0.0 | 0.0 | 0.00 | 0.15 | 0.00 | 78 | 1018.7 |
| 20260830123404 | 8 | 201 | 0.0 | 0.0 | 0.00 | 0.15 | 0.00 | 77 | 1018.8 |
| 20260830122904 | 8 | 201 | 0.0 | 0.0 | 0.00 | 0.15 | 0.00 | 77 | 1018.8 |
| 20260830122404 | 8 | 201 | 0.0 | 0.0 | 0.00 | 0.15 | 0.00 | 77 | 1018.7 |
| 20260830121904 | 8 | 201 | 0.0 | 0.0 | 0.00 | 0.15 | 0.00 | 77 | 1018.6 |
| 20260830121404 | 8 | 201 | 0.0 | 0.0 | 0.00 | 0.15 | 0.00 | 77 | 1018.7 |
| 20260830120904 | 8 | 201 | 0.0 | 0.0 | 0.00 | 0.15 | 0.00 | 77 | 1018.7 |
| 20260830120404 | 8 | 201 | 0.0 | 0.0 | 0.00 | 0.15 | 0.00 | 77 | 1018.7 |
| 20260830115404 | 8 | 201 | 0.0 | 0.0 | 0.00 | 0.15 | 0.00 | 77 | 1018.8 |
| 20260830114904 | 8 | 201 | 0.0 | 0.0 | 0.00 | 0.15 | 0.00 | 77 | 1018.8 |
| 20260830114404 | 8 | 201 | 0.0 | 0.0 | 0.00 | 0.15 | 0.00 | 77 | 1018.7 |
| 20260830113904 | 8 | 201 | 0.0 | 0.0 | 0.00 | 0.15 | 0.00 | 77 | 1018.9 |
| 20260830113404 | 8 | 201 | 0.0 | 0.0 | 0.00 | 0.15 | 0.00 | 77 | 1018.9 |
| 20260830112904 | 8 | 201 | 0.0 | 0.0 | 0.00 | 0.15 | 0.00 | 77 | 1018.9 |
| 20260830112404 | 8 | 201 | 0.0 | 0.0 | 0.00 | 0.15 | 0.00 | 77 | 1018.9 |
| 20260830111904 | 8 | 201 | 0.0 | 0.0 | 0.00 | 0.15 | 0.00 | 76 | 1018.9 |
| 20260830111404 | 9 | 201 | 0.0 | 0.0 | 0.00 | 0.15 | 0.00 | 76 | 1018.8 |
| 20260830110904 | 9 | 201 | 0.0 | 0.0 | 0.00 | 0.15 | 0.00 | 76 | 1018.7 |
| 20260830105904 | 9 | 201 | 0.0 | 0.0 | 0.00 | 0.15 | 0.00 | 76 | 1018.8 |
| 20260830104904 | 9 | 201 | 0.0 | 0.0 | 0.00 | 0.18 | 0.00 | 76 | 1018.7 |
| 20260830104404 | 9 | 201 | 0.0 | 0.0 | 0.00 | 0.18 | 0.00 | 76 | 1018.7 |
| 20260830103904 | 9 | 201 | 0.0 | 0.0 | 0.00 | 0.18 | 0.00 | 76 | 1018.7 |
| 20260830103404 | 9 | 201 | 0.0 | 0.0 | 0.00 | 0.18 | 0.00 | 76 | 1018.7 |
| 20260830102904 | 9 | 201 | 0.0 | 0.0 | 0.00 | 0.18 | 0.00 | 75 | 1018.7 |
| 20260830102404 | 9 | 201 | 0.0 | 0.0 | 0.00 | 0.18 | 0.00 | 75 | 1018.6 |
| 20260830101904 | 10 | 201 | 0.0 | 0.0 | 0.00 | 0.18 | 0.00 | 75 | 1018.6 |
| 20260830100904 | 10 | 201 | 0.0 | 0.0 | 0.00 | 0.18 | 0.00 | 74 | 1018.5 |
| 20260830100404 | 10 | 201 | 0.0 | 0.0 | 0.00 | 0.20 | 0.00 | 74 | 1018.5 |
| 20260830095904 | 10 | 201 | 0.0 | 0.0 | 0.00 | 0.20 | 0.00 | 74 | 1018.5 |
| 20260830094904 | 10 | 201 | 0.0 | 0.0 | 0.00 | 0.23 | 0.00 | 74 | 1018.7 |
| 20260830094404 | 10 | 201 | 0.0 | 0.0 | 0.00 | 0.23 | 0.00 | 74 | 1018.7 |
| 20260830093905 | 10 | 201 | 0.0 | 0.0 | 0.00 | 0.23 | 0.00 | 74 | 1018.8 |
| 20260830093404 | 10 | 201 | 0.0 | 0.0 | 0.00 | 0.23 | 0.00 | 73 | 1018.8 |
| 20260830092904 | 10 | 201 | 0.0 | 0.0 | 0.00 | 0.23 | 0.00 | 73 | 1018.6 |
| 20260830092404 | 11 | 201 | 0.0 | 0.0 | 0.00 | 0.23 | 0.00 | 73 | 1018.5 |
| 20260830091904 | 11 | 201 | 0.0 | 0.0 | 0.00 | 0.23 | 0.00 | 73 | 1018.5 |
| 20260830091404 | 11 | 201 | 0.0 | 0.0 | 0.00 | 0.23 | 0.00 | 72 | 1018.4 |
| 20260830090904 | 11 | 201 | 0.0 | 0.0 | 0.00 | 0.23 | 0.00 | 72 | 1018.4 |
| 20260830085904 | 11 | 201 | 0.0 | 0.0 | 0.00 | 0.23 | 0.00 | 73 | 1018.3 |
| 20260830085404 | 11 | 201 | 0.0 | 0.0 | 0.00 | 0.23 | 0.00 | 73 | 1018.2 |
| 20260830084904 | 12 | 201 | 0.0 | 0.0 | 0.00 | 0.23 | 0.00 | 73 | 1018.3 |
| 20260830084404 | 12 | 201 | 0.0 | 0.0 | 0.00 | 0.23 | 0.00 | 73 | 1018.3 |
| 20260830083904 | 12 | 201 | 0.0 | 0.0 | 0.00 | 0.23 | 0.00 | 73 | 1018.3 |
| 20260830083404 | 12 | 201 | 0.0 | 0.0 | 0.00 | 0.23 | 0.00 | 73 | 1018.3 |
| 20260830082904 | 12 | 201 | 0.0 | 0.0 | 0.00 | 0.23 | 0.00 | 73 | 1018.4 |
| 20260830082404 | 12 | 201 | 0.0 | 0.0 | 0.00 | 0.23 | 0.00 | 73 | 1018.4 |
| 20260830081404 | 12 | 201 | 0.0 | 0.0 | 0.00 | 0.23 | 0.00 | 73 | 1018.4 |
| 20260830080904 | 12 | 201 | 0.0 | 0.0 | 0.00 | 0.23 | 0.00 | 73 | 1018.3 |
| 20260830080404 | 12 | 201 | 0.0 | 0.0 | 0.00 | 0.23 | 0.00 | 73 | 1018.3 |
| 20260830075904 | 12 | 201 | 0.0 | 0.0 | 0.00 | 0.23 | 0.00 | 73 | 1018.3 |
| 20260830075404 | 12 | 201 | 0.0 | 0.0 | 0.00 | 0.23 | 0.00 | 73 | 1018.3 |
| 20260830074904 | 12 | 201 | 0.0 | 0.0 | 0.00 | 0.23 | 0.00 | 73 | 1018.3 |
| 20260830074404 | 12 | 201 | 0.0 | 0.0 | 0.00 | 0.23 | 0.00 | 73 | 1018.3 |
| 20260830073904 | 12 | 201 | 0.0 | 3.2 | 0.00 | 0.23 | 0.00 | 74 | 1018.4 |
| 20260830073404 | 12 | 171 | 3.2 | 12.9 | 0.00 | 0.23 | 0.00 | 74 | 1018.3 |
| 20260830072904 | 12 | 126 | 0.0 | 0.0 | 0.00 | 0.23 | 0.00 | 74 | 1018.4 |
| 20260830071904 | 12 | 124 | 0.0 | 12.9 | 0.00 | 0.23 | 0.00 | 75 | 1018.3 |
| 20260830071404 | 12 | 109 | 1.6 | 11.3 | 0.00 | 0.23 | 0.00 | 75 | 1018.4 |
| 20260830070904 | 12 | 108 | 0.0 | 0.0 | 0.00 | 0.23 | 0.00 | 76 | 1018.8 |
| 20260830070404 | 12 | 108 | 0.0 | 0.0 | 0.00 | 0.23 | 0.00 | 75 | 1019.4 |
| 20260830065904 | 12 | 108 | 0.0 | 0.0 | 0.00 | 0.23 | 0.00 | 75 | 1019.6 |
| 20260830065404 | 12 | 108 | 0.0 | 0.0 | 0.00 | 0.23 | 0.00 | 75 | 1019.6 |
| 20260830064904 | 12 | 108 | 0.0 | 0.0 | 0.00 | 0.23 | 0.00 | 75 | 1019.6 |
| 20260830064404 | 12 | 108 | 0.0 | 0.0 | 0.00 | 0.23 | 0.00 | 75 | 1019.5 |
| 20260830063904 | 12 | 108 | 0.0 | 0.0 | 0.00 | 0.23 | 0.00 | 75 | 1019.2 |
| 20260830063404 | 12 | 108 | 0.0 | 0.0 | 0.00 | 0.23 | 0.00 | 75 | 1019.0 |
| 20260830062404 | 12 | 108 | 0.0 | 0.0 | 0.00 | 0.23 | 0.00 | 74 | 1019.1 |
| 20260830061904 | 12 | 108 | 0.0 | 0.0 | 0.00 | 0.23 | 0.00 | 74 | 1018.9 |
| 20260830061404 | 12 | 108 | 0.0 | 0.0 | 0.00 | 0.23 | 0.00 | 74 | 1018.9 |
| 20260830060904 | 12 | 108 | 0.0 | 0.0 | 0.00 | 0.23 | 0.00 | 74 | 1018.9 |
| 20260830060404 | 12 | 108 | 0.0 | 0.0 | 0.00 | 0.23 | 0.00 | 74 | 1018.8 |
| 20260830055904 | 12 | 108 | 0.0 | 0.0 | 0.00 | 0.23 | 0.23 | 74 | 1018.7 |
| 20260830055404 | 12 | 108 | 0.0 | 0.0 | 0.00 | 0.23 | 0.23 | 73 | 1018.7 |
| 20260830054905 | 12 | 108 | 0.0 | 0.0 | 0.00 | 0.23 | 0.23 | 73 | 1018.6 |
| 20260830054404 | 12 | 108 | 0.0 | 0.0 | 0.00 | 0.23 | 0.23 | 73 | 1018.5 |
| 20260830053904 | 12 | 108 | 0.0 | 0.0 | 0.00 | 0.23 | 0.23 | 73 | 1018.4 |
| 20260830053404 | 12 | 108 | 0.0 | 0.0 | 0.00 | 0.23 | 0.23 | 73 | 1018.3 |
| 20260830052904 | 12 | 108 | 0.0 | 0.0 | 0.00 | 0.23 | 0.23 | 73 | 1018.3 |
| 20260830052404 | 12 | 108 | 0.0 | 0.0 | 0.00 | 0.23 | 0.23 | 73 | 1018.2 |
| 20260830051904 | 12 | 108 | 0.0 | 0.0 | 0.00 | 0.23 | 0.23 | 73 | 1018.2 |
| 20260830051404 | 12 | 108 | 0.0 | 0.0 | 0.00 | 0.23 | 0.23 | 73 | 1018.2 |
| 20260830050904 | 12 | 110 | 0.0 | 0.0 | 0.00 | 0.23 | 0.23 | 73 | 1018.2 |
| 20260830045904 | 12 | 114 | 0.0 | 0.0 | 0.00 | 0.23 | 0.23 | 72 | 1018.4 |
| 20260830045404 | 12 | 114 | 0.0 | 0.0 | 0.00 | 0.23 | 0.23 | 72 | 1018.4 |
| 20260830044904 | 12 | 114 | 0.0 | 0.0 | 0.00 | 0.25 | 0.23 | 71 | 1018.5 |
| 20260830044404 | 12 | 114 | 0.0 | 0.0 | 0.00 | 0.25 | 0.23 | 71 | 1018.5 |
| 20260830043904 | 12 | 114 | 0.0 | 0.0 | 0.00 | 0.25 | 0.23 | 71 | 1018.5 |
| 20260830042903 | 13 | 124 | 0.0 | 0.0 | 0.00 | 0.28 | 0.23 | 70 | 1018.5 |
| 20260830042404 | 13 | 124 | 1.6 | 19.3 | 0.00 | 0.30 | 0.23 | 70 | 1018.4 |
| 20260830041904 | 13 | 315 | 0.0 | 0.0 | 0.00 | 0.30 | 0.23 | 70 | 1018.4 |
| 20260830040905 | 13 | 20 | 1.6 | 16.1 | 0.03 | 0.36 | 0.23 | 70 | 1018.5 |
| 20260830040404 | 13 | 23 | 4.8 | 16.1 | 0.03 | 0.36 | 0.23 | 71 | 1018.4 |
| 20260830035404 | 13 | 103 | 0.0 | 0.0 | 0.03 | 0.38 | 0.23 | 71 | 1018.5 |
| 20260830034904 | 13 | 103 | 3.2 | 12.9 | 0.03 | 0.41 | 0.23 | 70 | 1018.7 |
| 20260830034404 | 13 | 95 | 1.6 | 11.3 | 0.03 | 0.43 | 0.23 | 70 | 1018.6 |
| 20260830033904 | 13 | 94 | 0.0 | 0.0 | 0.03 | 0.43 | 0.23 | 70 | 1018.6 |
| 20260830033404 | 13 | 94 | 0.0 | 0.0 | 0.03 | 0.46 | 0.23 | 70 | 1018.5 |
| 20260830032904 | 13 | 94 | 0.0 | 0.0 | 0.03 | 0.46 | 0.23 | 70 | 1018.6 |
| 20260830032404 | 13 | 94 | 0.0 | 0.0 | 0.03 | 0.48 | 0.23 | 70 | 1018.6 |
| 20260830031904 | 13 | 94 | 0.0 | 0.0 | 0.03 | 0.48 | 0.23 | 70 | 1018.6 |
| 20260830030904 | 13 | 103 | 0.0 | 0.0 | 0.00 | 0.46 | 0.20 | 71 | 1018.6 |
| 20260830030404 | 13 | 103 | 0.0 | 0.0 | 0.00 | 0.46 | 0.20 | 71 | 1018.5 |
| 20260830025905 | 13 | 103 | 0.0 | 11.3 | 0.00 | 0.46 | 0.20 | 72 | 1018.5 |
| 20260830025404 | 13 | 70 | 4.8 | 11.3 | 0.00 | 0.46 | 0.20 | 72 | 1018.4 |
| 20260830024904 | 13 | 47 | 1.6 | 14.5 | 0.03 | 0.46 | 0.20 | 72 | 1018.3 |
| 20260830024404 | 14 | 65 | 0.0 | 0.0 | 0.03 | 0.46 | 0.20 | 72 | 1018.2 |
| 20260830023904 | 14 | 65 | 0.0 | 0.0 | 0.03 | 0.46 | 0.20 | 71 | 1018.3 |
| 20260830023404 | 14 | 61 | 0.0 | 0.0 | 0.03 | 0.46 | 0.20 | 71 | 1018.4 |
| 20260830022904 | 14 | 61 | 0.0 | 0.0 | 0.03 | 0.46 | 0.20 | 70 | 1018.6 |
| 20260830021404 | 15 | 61 | 0.0 | 0.0 | 0.03 | 0.46 | 0.20 | 68 | 1018.4 |
| 20260830020404 | 15 | 57 | 0.0 | 3.2 | 0.03 | 0.46 | 0.20 | 69 | 1018.2 |
| 20260830015904 | 16 | 57 | 0.0 | 0.0 | 0.03 | 0.46 | 0.20 | 70 | 1018.0 |
| 20260830015404 | 16 | 57 | 0.0 | 0.0 | 0.03 | 0.46 | 0.20 | 69 | 1017.9 |
| 20260830014904 | 16 | 57 | 0.0 | 0.0 | 0.00 | 0.43 | 0.18 | 69 | 1017.7 |
| 20260830014404 | 16 | 57 | 0.0 | 0.0 | 0.00 | 0.43 | 0.18 | 69 | 1017.7 |
| 20260830013904 | 16 | 57 | 0.0 | 0.0 | 0.00 | 0.43 | 0.18 | 69 | 1017.7 |
| 20260830012404 | 17 | 57 | 0.0 | 0.0 | 0.00 | 0.43 | 0.18 | 67 | 1017.6 |
| 20260830011404 | 17 | 57 | 0.0 | 0.0 | 0.00 | 0.43 | 0.18 | 65 | 1017.6 |
| 20260830010904 | 17 | 57 | 0.0 | 0.0 | 0.00 | 0.43 | 0.18 | 64 | 1017.4 |
| 20260830010404 | 17 | 57 | 3.2 | 11.3 | 0.00 | 0.43 | 0.18 | 63 | 1017.3 |